�������l�o���
Date,Time,MP-1(��Sv/h),MP-2(��Sv/h),MP-3(��Sv/h),MP-4(��Sv/h),MP-5(��Sv/h),MP-6(��Sv/h),MP-7(��Sv/h),MP-8(��Sv/h),����,����(m/s),���J
2019/09/21,00:00,0.743,1.061,0.727,1.297,0.951,0.421,0.734,0.695,�k�k��,3.7,��
2019/09/21,00:10,0.745,1.060,0.726,1.299,0.951,0.425,0.735,0.696,�k,4.2,��
2019/09/21,00:20,0.745,1.056,0.725,1.300,0.951,0.421,0.735,0.695,�k�k��,4.4,��
2019/09/21,00:30,0.744,1.058,0.725,1.298,0.950,0.421,0.735,0.695,�k,4.1,��
2019/09/21,00:40,0.743,1.058,0.727,1.298,0.950,0.423,0.735,0.696,�k,3.9,��
2019/09/21,00:50,0.745,1.061,0.726,1.299,0.951,0.422,0.733,0.694,�k�k��,4.2,��
2019/09/21,01:00,0.742,1.060,0.728,1.297,0.952,0.420,0.736,0.695,�k�k��,3.9,��
2019/09/21,01:10,0.744,1.057,0.727,1.299,0.950,0.422,0.735,0.695,�k�k��,4.0,��
2019/09/21,01:20,0.744,1.061,0.727,1.299,0.952,0.422,0.734,0.696,�k��,4.1,��
2019/09/21,01:30,0.745,1.059,0.726,1.298,0.950,0.422,0.735,0.695,�k�k��,3.9,��
2019/09/21,01:40,0.744,1.056,0.725,1.297,0.953,0.422,0.737,0.696,�k�k��,3.4,��
2019/09/21,01:50,0.745,1.059,0.728,1.301,0.951,0.423,0.736,0.697,�k,3.8,��
2019/09/21,02:00,0.744,1.059,0.726,1.298,0.950,0.422,0.737,0.695,�k,3.9,��
2019/09/21,02:10,0.743,1.057,0.727,1.299,0.952,0.421,0.734,0.696,�k�k��,4.0,��
2019/09/21,02:20,0.744,1.058,0.728,1.297,0.952,0.424,0.736,0.695,�k�k��,5.2,��
2019/09/21,02:30,0.744,1.059,0.727,1.301,0.951,0.422,0.733,0.695,�k�k��,5.3,��
2019/09/21,02:40,0.742,1.059,0.728,1.299,0.950,0.422,0.736,0.695,�k�k��,5.7,��
2019/09/21,02:50,0.743,1.058,0.727,1.298,0.952,0.422,0.734,0.696,�k�k��,5.4,��
2019/09/21,03:00,0.745,1.057,0.726,1.299,0.950,0.421,0.734,0.696,�k�k��,4.2,��
2019/09/21,03:10,0.742,1.058,0.728,1.298,0.951,0.422,0.735,0.696,�k�k��,4.7,��
2019/09/21,03:20,0.745,1.059,0.726,1.298,0.951,0.422,0.734,0.694,�k�k��,4.5,��
2019/09/21,03:30,0.744,1.060,0.726,1.296,0.951,0.422,0.735,0.694,�k�k��,5.9,��
2019/09/21,03:40,0.743,1.058,0.726,1.299,0.954,0.422,0.735,0.695,�k�k��,5.1,��
2019/09/21,03:50,0.744,1.057,0.727,1.299,0.949,0.421,0.735,0.696,�k�k��,5.5,��
2019/09/21,04:00,0.744,1.057,0.725,1.297,0.951,0.420,0.736,0.694,�k�k��,5.8,��
2019/09/21,04:10,0.744,1.055,0.727,1.298,0.951,0.423,0.735,0.695,�k�k��,5.5,��
2019/09/21,04:20,0.743,1.056,0.726,1.299,0.950,0.421,0.735,0.695,�k�k��,5.3,��
2019/09/21,04:30,0.746,1.059,0.728,1.297,0.951,0.421,0.734,0.696,�k�k��,4.6,��
2019/09/21,04:40,0.742,1.058,0.726,1.295,0.951,0.422,0.734,0.694,�k�k��,5.4,��
2019/09/21,04:50,0.743,1.059,0.727,1.298,0.950,0.421,0.736,0.695,�k�k��,5.0,��
2019/09/21,05:00,0.743,1.059,0.727,1.299,0.949,0.422,0.734,0.697,�k�k��,5.5,��
2019/09/21,05:10,0.744,1.059,0.727,1.299,0.951,0.421,0.734,0.695,�k�k��,6.0,��
2019/09/21,05:20,0.743,1.056,0.730,1.301,0.953,0.422,0.735,0.696,�k�k��,6.6,��
2019/09/21,05:30,0.747,1.058,0.727,1.297,0.950,0.422,0.735,0.695,�k�k��,6.6,��
2019/09/21,05:40,0.745,1.061,0.726,1.297,0.950,0.422,0.736,0.694,�k�k��,6.4,��
2019/09/21,05:50,0.742,1.057,0.726,1.299,0.949,0.421,0.734,0.694,�k�k��,5.8,��
2019/09/21,06:00,0.744,1.058,0.727,1.298,0.949,0.421,0.734,0.695,�k�k��,6.3,��
2019/09/21,06:10,0.743,1.060,0.728,1.298,0.950,0.422,0.734,0.695,�k��,6.0,��
2019/09/21,06:20,0.743,1.061,0.727,1.299,0.952,0.420,0.735,0.696,�k�k��,5.7,��
2019/09/21,06:30,0.744,1.058,0.728,1.299,0.949,0.421,0.733,0.695,�k�k��,5.9,��
2019/09/21,06:40,0.742,1.060,0.727,1.300,0.949,0.422,0.733,0.696,�k�k��,5.9,��
2019/09/21,06:50,0.743,1.060,0.726,1.298,0.950,0.419,0.732,0.696,�k�k��,5.9,��
2019/09/21,07:00,0.746,1.058,0.727,1.299,0.952,0.422,0.734,0.697,�k�k��,5.7,��
2019/09/21,07:10,0.742,1.059,0.728,1.299,0.951,0.420,0.732,0.696,�k�k��,5.9,��
2019/09/21,07:20,0.742,1.058,0.727,1.299,0.951,0.421,0.734,0.695,�k�k��,5.7,��
2019/09/21,07:30,0.743,1.059,0.729,1.299,0.953,0.420,0.732,0.695,�k��,5.5,��
2019/09/21,07:40,0.744,1.058,0.727,1.300,0.951,0.422,0.734,0.695,�k�k��,4.9,��
2019/09/21,07:50,0.745,1.060,0.728,1.301,0.952,0.420,0.735,0.697,�k�k��,5.3,��
2019/09/21,08:00,0.744,1.060,0.728,1.299,0.950,0.421,0.734,0.696,�k�k��,5.1,��
2019/09/21,08:10,0.745,1.057,0.727,1.300,0.950,0.421,0.734,0.696,�k�k��,4.8,��
2019/09/21,08:20,0.747,1.058,0.730,1.299,0.951,0.420,0.734,0.696,�k�k��,5.5,��
2019/09/21,08:30,0.744,1.056,0.728,1.299,0.949,0.418,0.735,0.697,�k�k��,5.0,��
2019/09/21,08:40,0.743,1.057,0.727,1.301,0.949,0.420,0.733,0.694,�k�k��,4.9,��
2019/09/21,08:50,0.742,1.054,0.729,1.299,0.950,0.419,0.736,0.694,�k�k��,4.9,��
2019/09/21,09:00,0.743,1.055,0.729,1.300,0.948,0.419,0.735,0.695,�k�k��,4.4,��
2019/09/21,09:10,0.744,1.054,0.726,1.299,0.947,0.419,0.733,0.694,�k�k��,4.1,��
2019/09/21,09:20,0.743,1.055,0.727,1.303,0.949,0.419,0.734,0.693,�k�k��,4.6,��
2019/09/21,09:30,0.742,1.056,0.727,1.300,0.950,0.419,0.734,0.692,�k�k��,3.7,��
2019/09/21,09:40,0.743,1.058,0.727,1.300,0.949,0.417,0.735,0.693,�k�k��,3.3,��
2019/09/21,09:50,0.741,1.055,0.723,1.304,0.951,0.419,0.736,0.695,�k�k��,3.8,��
2019/09/21,10:00,0.742,1.058,0.725,1.302,0.950,0.419,0.736,0.693,�k�k��,3.5,��
2019/09/21,10:10,0.744,1.056,0.725,1.298,0.951,0.419,0.735,0.693,�k�k��,3.5,��
2019/09/21,10:20,0.743,1.057,0.727,1.300,0.949,0.419,0.734,0.694,�k�k��,3.1,��
2019/09/21,10:30,0.742,1.058,0.727,1.302,0.948,0.419,0.737,0.694,�k�k��,3.3,��
2019/09/21,10:40,0.744,1.058,0.725,1.299,0.952,0.419,0.734,0.694,�k�k��,2.3,��
2019/09/21,10:50,0.745,1.057,0.727,1.300,0.950,0.418,0.737,0.692,�k�k��,1.9,��
2019/09/21,11:00,0.744,1.056,0.726,1.303,0.953,0.419,0.735,0.693,�k�k��,3.1,��
2019/09/21,11:10,0.743,1.057,0.727,1.303,0.951,0.420,0.734,0.695,�k�k��,3.2,��
2019/09/21,11:20,0.743,1.061,0.726,1.303,0.951,0.417,0.735,0.695,�k��,3.4,��
2019/09/21,11:30,0.743,1.059,0.725,1.304,0.951,0.420,0.735,0.695,�k��,3.5,��
2019/09/21,11:40,0.744,1.059,0.726,1.303,0.951,0.419,0.736,0.694,�k�k��,3.9,��
2019/09/21,11:50,0.744,1.059,0.727,1.301,0.951,0.418,0.735,0.693,�k��,3.5,��
2019/09/21,12:00,0.744,1.061,0.726,1.300,0.952,0.420,0.734,0.694,�k�k��,4.2,��
2019/09/21,12:10,0.745,1.062,0.727,1.303,0.951,0.419,0.735,0.694,�k�k��,3.9,��
2019/09/21,12:20,0.744,1.060,0.728,1.301,0.953,0.420,0.735,0.694,�k�k��,4.1,��
2019/09/21,12:30,0.743,1.061,0.728,1.302,0.953,0.421,0.735,0.693,�k��,3.2,��
2019/09/21,12:40,0.745,1.060,0.726,1.301,0.953,0.419,0.734,0.693,�k��,3.2,��
2019/09/21,12:50,0.744,1.061,0.728,1.300,0.953,0.419,0.735,0.696,�k�k��,2.5,��
2019/09/21,13:00,0.742,1.060,0.726,1.303,0.952,0.419,0.735,0.694,�k��,2.3,��
2019/09/21,13:10,0.745,1.060,0.726,1.303,0.953,0.419,0.736,0.695,�k�k��,2.6,��
2019/09/21,13:20,0.744,1.060,0.728,1.302,0.952,0.419,0.735,0.694,�k�k��,2.8,��
2019/09/21,13:30,0.743,1.060,0.726,1.304,0.952,0.421,0.735,0.694,�k�k��,2.6,��
2019/09/21,13:40,0.743,1.062,0.727,1.304,0.954,0.421,0.734,0.694,�k�k��,2.5,��
2019/09/21,13:50,0.744,1.063,0.727,1.303,0.953,0.420,0.733,0.694,�k�k��,2.3,��
2019/09/21,14:00,0.745,1.060,0.726,1.299,0.952,0.420,0.736,0.696,�k�k��,2.8,��
2019/09/21,14:10,0.744,1.061,0.728,1.301,0.951,0.421,0.736,0.695,�k�k��,2.3,��
2019/09/21,14:20,0.745,1.062,0.726,1.299,0.953,0.419,0.733,0.695,�k�k��,2.2,��
2019/09/21,14:30,0.744,1.061,0.727,1.303,0.952,0.421,0.736,0.696,�k�k��,2.2,��
2019/09/21,14:40,0.746,1.059,0.728,1.301,0.953,0.421,0.735,0.695,�k�k��,1.7,��
2019/09/21,14:50,0.744,1.059,0.725,1.302,0.953,0.420,0.734,0.693,�k�k��,1.9,��
2019/09/21,15:00,0.745,1.060,0.726,1.301,0.952,0.420,0.736,0.696,�k�k��,2.0,��
2019/09/21,15:10,0.744,1.060,0.727,1.302,0.952,0.420,0.737,0.693,�k�k��,2.3,��
2019/09/21,15:20,0.746,1.065,0.725,1.303,0.952,0.420,0.736,0.693,�k�k��,2.3,��
2019/09/21,15:30,0.744,1.059,0.727,1.300,0.956,0.419,0.734,0.694,�k,2.0,�L
2019/09/21,15:40,0.743,1.060,0.728,1.301,0.953,0.420,0.736,0.695,�k,2.0,�L
2019/09/21,15:50,0.744,1.062,0.729,1.303,0.955,0.420,0.734,0.695,���k��,1.9,�L
2019/09/21,16:00,0.744,1.062,0.730,1.303,0.952,0.418,0.736,0.695,���k��,1.4,�L
2019/09/21,16:10,0.744,1.063,0.729,1.304,0.953,0.420,0.736,0.694,�k�k��,1.4,�L
2019/09/21,16:20,0.745,1.062,0.729,1.300,0.953,0.421,0.734,0.694,�k��,1.7,�L
2019/09/21,16:30,0.743,1.061,0.729,1.304,0.953,0.421,0.734,0.694,�k�k��,1.7,�L
2019/09/21,16:40,0.742,1.063,0.728,1.301,0.953,0.420,0.736,0.694,�k�k��,1.5,�L
2019/09/21,16:50,0.742,1.061,0.731,1.304,0.955,0.421,0.737,0.697,���k��,1.5,��
2019/09/21,17:00,0.747,1.062,0.731,1.302,0.953,0.420,0.736,0.696,�k��,1.2,��
2019/09/21,17:10,0.744,1.062,0.731,1.304,0.954,0.422,0.736,0.697,���k��,1.2,��
2019/09/21,17:20,0.745,1.063,0.730,1.304,0.954,0.421,0.734,0.697,�k��,1.1,�L
2019/09/21,17:30,0.744,1.062,0.729,1.303,0.955,0.422,0.736,0.696,�k�k��,0.9,�L
2019/09/21,17:40,0.746,1.064,0.728,1.304,0.953,0.421,0.736,0.697,�k,0.6,��
2019/09/21,17:50,0.745,1.062,0.729,1.303,0.953,0.421,0.734,0.695,�k��,0.6,��
2019/09/21,18:00,0.746,1.061,0.730,1.303,0.952,0.419,0.736,0.696,�k��,0.6,��
2019/09/21,18:10,0.744,1.062,0.729,1.301,0.954,0.421,0.737,0.696,-,CALM,��
2019/09/21,18:20,0.746,1.061,0.729,1.304,0.953,0.420,0.737,0.696,�k�k��,0.6,��
2019/09/21,18:30,0.746,1.060,0.729,1.303,0.953,0.422,0.734,0.696,���k��,0.6,��
2019/09/21,18:40,0.745,1.062,0.730,1.303,0.954,0.422,0.734,0.697,��,0.9,��
2019/09/21,18:50,0.746,1.063,0.728,1.304,0.952,0.422,0.734,0.699,���k��,0.6,��
2019/09/21,19:00,0.744,1.060,0.731,1.305,0.954,0.421,0.735,0.697,�k��,0.6,��
2019/09/21,19:10,0.747,1.060,0.731,1.304,0.952,0.422,0.735,0.695,�k�k��,0.9,��
2019/09/21,19:20,0.745,1.059,0.732,1.302,0.954,0.422,0.735,0.695,���k��,0.6,��
2019/09/21,19:30,0.746,1.062,0.729,1.306,0.953,0.421,0.735,0.696,���k��,0.9,��
2019/09/21,19:40,0.746,1.060,0.730,1.304,0.954,0.421,0.734,0.697,���k��,0.9,��
2019/09/21,19:50,0.746,1.062,0.728,1.305,0.953,0.420,0.735,0.696,-,CALM,��
2019/09/21,20:00,0.747,1.057,0.729,1.303,0.953,0.421,0.734,0.696,-,CALM,��
2019/09/21,20:10,0.746,1.060,0.730,1.306,0.954,0.420,0.736,0.696,���k��,0.9,��
2019/09/21,20:20,0.747,1.061,0.728,1.304,0.954,0.422,0.735,0.697,���k��,1.2,��
2019/09/21,20:30,0.746,1.060,0.730,1.304,0.957,0.422,0.736,0.696,�k��,0.6,��
2019/09/21,20:40,0.744,1.063,0.730,1.306,0.953,0.421,0.734,0.697,���k��,1.1,��
2019/09/21,20:50,0.745,1.062,0.729,1.304,0.955,0.422,0.735,0.698,-,CALM,��
2019/09/21,21:00,0.745,1.062,0.730,1.305,0.953,0.422,0.735,0.697,-,CALM,��
2019/09/21,21:10,0.744,1.060,0.728,1.305,0.952,0.421,0.736,0.696,-,CALM,��
2019/09/21,21:20,0.747,1.060,0.729,1.307,0.954,0.421,0.734,0.697,���쐼,0.9,��
2019/09/21,21:30,0.746,1.059,0.730,1.305,0.953,0.421,0.735,0.697,���쐼,0.6,��
2019/09/21,21:40,0.746,1.060,0.728,1.304,0.953,0.420,0.735,0.694,��,0.6,��
2019/09/21,21:50,0.744,1.061,0.729,1.303,0.955,0.421,0.736,0.697,���쐼,0.6,��
2019/09/21,22:00,0.745,1.061,0.730,1.306,0.952,0.423,0.736,0.696,-,CALM,��
2019/09/21,22:10,0.745,1.061,0.727,1.303,0.955,0.421,0.736,0.696,��,0.9,��
2019/09/21,22:20,0.746,1.062,0.731,1.303,0.953,0.421,0.736,0.696,��,1.2,��
2019/09/21,22:30,0.745,1.062,0.731,1.310,0.954,0.422,0.734,0.696,���쐼,1.4,�L
2019/09/21,22:40,0.744,1.062,0.729,1.305,0.954,0.421,0.736,0.697,��,1.7,��
2019/09/21,22:50,0.744,1.061,0.730,1.302,0.953,0.422,0.736,0.698,��,1.4,��
2019/09/21,23:00,0.745,1.060,0.729,1.305,0.954,0.422,0.734,0.697,���k��,0.9,��
2019/09/21,23:10,0.746,1.061,0.729,1.304,0.954,0.421,0.735,0.696,�k��,0.9,��
2019/09/21,23:20,0.747,1.062,0.728,1.304,0.954,0.421,0.735,0.697,-,CALM,��
2019/09/21,23:30,0.745,1.061,0.730,1.303,0.954,0.421,0.737,0.696,�k��,0.9,��
2019/09/21,23:40,0.747,1.062,0.732,1.305,0.953,0.422,0.734,0.695,�k�k��,1.2,��
2019/09/21,23:50,0.745,1.061,0.728,1.303,0.956,0.421,0.736,0.697,�k,1.2,��
